TimePDT,TemperatureF,Dew PointF,Humidity,Sea Level PressureIn,VisibilityMPH,Wind Direction,Wind SpeedMPH,Gust SpeedMPH,PrecipitationIn,Events,Conditions,WindDirDegrees,DateUTC
12:53 AM,62.1,60.1,93,30.06,10.0,Calm,Calm,-,N/A,,Clear,0,2013-09-09 07:53:00
1:53 AM,61.0,59.0,93,30.05,10.0,Calm,Calm,-,N/A,,Clear,0,2013-09-09 08:53:00
2:53 AM,60.1,59.0,96,30.05,10.0,Calm,Calm,-,N/A,,Clear,0,2013-09-09 09:53:00
3:14 AM,60.8,59.0,94,30.04,10.0,Calm,Calm,-,N/A,,Scattered Clouds,0,2013-09-09 10:14:00
3:41 AM,60.8,59.0,94,30.04,10.0,Calm,Calm,-,N/A,,Mostly Cloudy,0,2013-09-09 10:41:00
3:53 AM,60.1,57.9,93,30.06,10.0,Calm,Calm,-,N/A,,Mostly Cloudy,0,2013-09-09 10:53:00
4:53 AM,61.0,57.9,90,30.06,10.0,Calm,Calm,-,N/A,,Overcast,0,2013-09-09 11:53:00
5:53 AM,61.0,59.0,93,30.06,10.0,Calm,Calm,-,N/A,,Overcast,0,2013-09-09 12:53:00
6:35 AM,60.8,57.2,88,30.05,8.0,SSE,3.5,-,N/A,,Overcast,160,2013-09-09 13:35:00
6:53 AM,60.1,57.9,93,30.07,5.0,South,4.6,-,N/A,,Overcast,170,2013-09-09 13:53:00
7:07 AM,60.8,57.2,88,30.05,3.0,South,4.6,-,N/A,,Overcast,170,2013-09-09 14:07:00
7:53 AM,60.1,57.9,93,30.08,5.0,South,3.5,-,N/A,,Overcast,170,2013-09-09 14:53:00
8:53 AM,60.1,57.9,93,30.08,5.0,Calm,Calm,-,N/A,,Overcast,0,2013-09-09 15:53:00
9:53 AM,60.1,57.9,93,30.09,5.0,Calm,Calm,-,N/A,,Overcast,0,2013-09-09 16:53:00
10:24 AM,62.6,57.2,82,30.07,6.0,Calm,Calm,-,N/A,,Overcast,0,2013-09-09 17:24:00
10:51 AM,62.6,57.2,82,30.07,6.0,Calm,Calm,-,N/A,,Overcast,0,2013-09-09 17:51:00
10:53 AM,63.0,57.9,84,30.09,6.0,Calm,Calm,-,N/A,,Haze,0,2013-09-09 17:53:00
11:23 AM,64.4,60.8,88,30.06,7.0,North,3.5,-,N/A,,Scattered Clouds,350,2013-09-09 18:23:00
11:53 AM,64.9,60.1,84,30.08,5.0,NNW,5.8,-,N/A,,Haze,330,2013-09-09 18:53:00
12:53 PM,68.0,61.0,78,30.06,6.0,NNW,8.1,-,N/A,,Haze,340,2013-09-09 19:53:00
1:53 PM,71.1,62.1,73,30.04,8.0,North,4.6,-,N/A,,Clear,350,2013-09-09 20:53:00
2:53 PM,73.0,61.0,66,30.03,10.0,Variable,3.5,-,N/A,,Clear,0,2013-09-09 21:53:00
3:53 PM,75.0,61.0,62,30.01,10.0,NW,5.8,-,N/A,,Clear,310,2013-09-09 22:53:00
4:53 PM,75.9,60.1,58,30.00,10.0,NW,9.2,-,N/A,,Clear,310,2013-09-09 23:53:00
5:53 PM,77.0,60.1,56,29.99,10.0,NW,8.1,-,N/A,,Clear,320,2013-09-10 00:53:00
6:53 PM,75.0,61.0,62,29.99,10.0,NNW,9.2,-,N/A,,Clear,330,2013-09-10 01:53:00
7:53 PM,72.0,60.1,66,29.99,10.0,NNW,6.9,-,N/A,,Clear,330,2013-09-10 02:53:00
8:53 PM,69.1,61.0,75,30.00,10.0,NW,5.8,-,N/A,,Clear,320,2013-09-10 03:53:00
9:53 PM,68.0,61.0,78,30.00,10.0,NNW,4.6,-,N/A,,Clear,340,2013-09-10 04:53:00
10:53 PM,66.9,61.0,81,29.99,10.0,NNW,8.1,-,N/A,,Clear,330,2013-09-10 05:53:00
11:53 PM,66.0,60.1,81,30.00,10.0,NW,6.9,-,N/A,,Clear,320,2013-09-10 06:53:00